Location: *
(38.9800°N, 16.0500°E)
Time: 09:28:27
(UTC+00:00)

Cosmos 2279 Rocket - Pass Details

Date: 07 April 2020
Orbit: 965 x 978 km, 82.9° (Epoch: 29 May)

Event Time Altitude Azimuth Distance (km) Brightness Sun altitude
Rises 02:04:55 0° 353° (N) 3,678 7.4 -26.9°
Reaches altitude 10° 02:07:26 10° 354° (N) 2,728 6.7 -26.5°
Maximum altitude 02:13:42 84° 83° (E) 987 4.0 -25.5°
Enters shadow 02:17:50 23° 171° (S) 1,950 5.3 -24.8°
